Volver al catálogo

QIANFAN-215

ActivoComunicacionesPO
NORAD 69814·PAYLOAD·🇨🇳 China

Lanzado Jul 4, 2026 desde Taiyuan Satellite Launch Center

Loading…

Próximos Pases (próximas 24 horas)

TLE

ActualizadoSource: Space-Track

Época: Sep 14, 2026, 13:17 UTC

1 69814U 26153Q   26257.55369579 -.01861599  00000-0 -10705+1 0  9990
2 69814  88.9972 352.0137 0006015  64.3545 295.8262 14.13053302 10279

Sigue QIANFAN-215 en tiempo real con AllMySat

Download on the App Store